EW7899 Weather Reports


time (UTC)temp
C
wind
direction
speed
KPH
gust
KPH
rain 1hr
cm
rain 24hr
cm
rain mn
cm
humidity
%
barometer
mb
20260504081513 7 134 0.0 0.0 0.00 0.00 0.00 89 1003.7
20260504044547 5 195 0.0 1.6 0.00 0.00 0.00 77 1005.2
20260504043050 5 359 0.0 0.0 0.00 0.00 0.00 75 1005.4
20260504041542 5 185 0.0 11.3 0.00 0.00 0.00 74 1005.4
20260504040039 5 16 0.0 6.4 0.00 0.00 0.00 75 1005.2
20260504034538 3 131 4.8 16.1 0.00 0.00 0.00 76 1005.2
20260504033041 3 359 0.0 0.0 0.00 0.00 0.00 78 1005.2
20260504031541 3 227 0.0 0.0 0.00 0.00 0.00 79 1005.2
20260504030037 3 228 0.0 0.0 0.00 0.00 0.00 77 1005.4
20260504024537 3 229 0.0 0.0 0.00 0.00 0.00 76 1005.3
20260504023037 3 190 0.0 0.0 0.00 0.00 0.00 74 1005.5
20260504021537 3 190 0.0 3.2 0.00 0.00 0.00 75 1005.6
20260504020035 3 359 0.0 0.0 0.00 0.03 0.00 74 1005.5
20260504014539 3 359 0.0 0.0 0.00 0.03 0.00 73 1005.6
20260504013042 4 228 0.0 0.0 0.00 0.03 0.00 72 1005.7
20260504011537 5 228 0.0 0.0 0.00 0.03 0.00 71 1005.7
20260504010036 5 213 0.0 0.0 0.00 0.03 0.00 70 1005.7
20260504004533 5 100 0.0 0.0 0.00 0.03 0.00 67 1005.6
20260504003036 6 76 0.0 0.0 0.00 0.03 0.00 65 1005.5
20260504001538 6 126 0.0 0.0 0.00 0.03 0.00 62 1005.3
20260504000032 7 143 0.0 0.0 0.00 0.03 0.00 60 1005.2
20260503234532 7 148 0.0 0.0 0.00 0.03 0.00 58 1005.2
20260503233030 8 294 0.0 12.9 0.00 0.03 0.00 57 1005.1
20260503231531 8 241 6.4 16.1 0.00 0.03 0.00 52 1005.1
20260503230029 8 310 0.0 6.4 0.00 0.03 0.00 52 1005.0
20260503224532 8 274 0.0 9.7 0.00 0.03 0.00 58 1005.0
20260503223029 9 303 0.0 12.9 0.00 0.03 0.00 54 1005.0
20260503221529 9 303 11.3 24.1 0.00 0.03 0.00 42 1005.2
20260503220027 10 266 9.7 29.0 0.00 0.05 0.00 42 1005.3
20260503214527 10 305 3.2 25.7 0.00 0.05 0.00 44 1005.2
20260503213023 10 304 14.5 29.0 0.00 0.05 0.00 43 1005.2
20260503211524 10 359 3.2 20.9 0.00 0.05 0.00 45 1005.0
20260503210023 9 359 9.7 25.7 0.00 0.05 0.00 43 1005.1
20260503204523 9 318 11.3 22.5 0.00 0.05 0.00 43 1005.0
20260503203023 9 290 4.8 20.9 0.00 0.05 0.00 50 1005.2
20260503201520 9 359 16.1 37.0 0.00 0.05 0.00 42 1005.1
20260503200020 10 305 4.8 22.5 0.00 0.18 0.00 48 1005.2
20260503194521 10 298 4.8 19.3 0.00 0.18 0.00 44 1005.5
20260503193017 10 310 8.0 17.7 0.00 0.18 0.00 44 1005.6
20260503191528 8 310 20.9 29.0 0.00 0.18 0.00 46 1005.9
20260503190013 9 307 17.7 33.8 0.00 0.30 0.00 46 1005.9
20260503184512 9 310 14.5 30.6 0.00 0.30 0.00 46 1006.0
20260503183007 8 322 17.7 35.4 0.00 0.30 0.00 47 1006.1
20260503181507 7 289 11.3 19.3 0.00 0.30 0.00 51 1006.4
20260503180005 7 308 19.3 37.0 0.00 0.33 0.00 51 1006.4
20260503174503 8 359 9.7 19.3 0.00 0.33 0.00 54 1006.4
20260503173002 7 326 14.5 24.1 0.00 0.33 0.00 59 1006.6
20260503171600 7 299 14.5 22.5 0.00 0.33 0.00 54 1006.8
20260503171500 7 359 12.9 20.9 0.00 0.33 0.00 55 1006.8
20260503170112 7 304 14.5 24.1 0.00 0.48 0.00 53 1006.9
20260503160114 7 305 12.9 25.7 0.00 0.48 0.00 52 1007.3